User: anonymous   Login
Location: Unspecified
(0.0000°N, 0.0000°E)
Time: 22:31:43
(UTC+00:00)
Language:

NOAA 9 - Orbit

View from above orbital plane
View from above orbital plane
View from above satellite
View from above satellite

Ground track
Ground track

The orbit data is extracted from the following two-line orbital elements,

1 15427U 84123A   18174.85524934 -.00000017 +00000-0 +13908-4 0  9992
2 15427 098.8465 120.3561 0014598 344.5127 036.1188 14.16039432730743
Epoch (UTC): 23 June 2018 20:31:33
Eccentricity: 0.0014598
inclination: 98.8465°
perigee height: 828 km
apogee height: 849 km
right ascension of ascending node: 120.3561°
argument of perigee: 344.5127°
revolutions per day: 14.16039432
mean anomaly at epoch: 36.1188°
orbit number at epoch: 73074

The dashed part of the orbit path shows where the satellite is in the earth's shadow,  

DLR